K5RG-3 Weather Reports


time (UTC)temp
C
wind
direction
speed
KPH
gust
KPH
rain 1hr
cm
rain 24hr
cm
rain mn
cm
humidity
%
barometer
mb
20260831214519 28 218 0.0 3.2 0.00 0.10 0.10 84 1012.4
20260831213028 28 200 0.0 6.4 0.00 0.10 0.10 86 1012.6
20260831211516 27 252 0.0 3.2 0.08 0.10 0.10 87 1012.8
20260831210020 27 231 0.0 3.2 0.10 0.10 0.10 86 1012.9
20260831204515 27 238 6.4 16.1 0.10 0.10 0.10 86 1013.4
20260831203013 28 266 3.2 9.7 0.10 0.10 0.10 82 1013.6
20260831201514 30 98 6.4 22.5 0.00 0.00 0.00 76 1013.6
20260831200021 32 160 1.6 8.0 0.00 0.00 0.00 73 1013.3
20260831194524 32 88 3.2 9.7 0.00 0.00 0.00 68 1013.5
20260831193012 32 300 4.8 9.7 0.00 0.00 0.00 71 1013.5
20260831191512 32 10 1.6 17.7 0.00 0.00 0.00 72 1013.7
20260831190010 33 15 1.6 9.7 0.00 0.00 0.00 65 1013.9
20260831184513 33 54 1.6 8.0 0.00 0.00 0.00 66 1013.9
20260831183107 33 335 0.0 6.4 0.00 0.00 0.00 67 1014.0
20260831181557 32 134 1.6 6.4 0.00 0.00 0.00 68 1014.2
20260831180053 32 112 1.6 9.7 0.00 0.00 0.00 71 1014.5
20260831174602 32 95 1.6 11.3 0.00 0.00 0.00 72 1014.5
20260831173058 31 71 1.6 8.0 0.00 0.00 0.00 75 1014.7
20260831171545 31 192 0.0 6.4 0.00 0.00 0.00 77 1014.8
20260831170044 30 279 1.6 8.0 0.00 0.00 0.00 77 1015.0
20260831164542 31 154 1.6 12.9 0.00 0.00 0.00 77 1015.0
20260831163049 30 58 8.0 16.1 0.00 0.00 0.00 79 1014.9
20260831161541 31 51 3.2 12.9 0.00 0.00 0.00 78 1015.0
20260831160045 31 81 1.6 14.5 0.00 0.00 0.00 76 1015.0
20260831154537 30 81 3.2 11.3 0.00 0.00 0.00 81 1014.8
20260831153036 30 61 3.2 12.9 0.00 0.00 0.00 81 1014.9
20260831151534 30 351 0.0 8.0 0.00 0.00 0.00 81 1014.9
20260831150033 30 48 3.2 8.0 0.00 0.00 0.00 82 1014.9
20260831144542 28 33 1.6 6.4 0.00 0.00 0.00 84 1014.8
20260831143033 28 331 0.0 4.8 0.00 0.00 0.00 85 1014.6
20260831141522 27 344 0.0 6.4 0.00 0.00 0.00 87 1014.7
20260831140018 27 55 0.0 8.0 0.00 0.00 0.00 90 1014.7
20260831134514 26 340 0.0 4.8 0.00 0.00 0.00 91 1014.4
20260831133012 26 313 0.0 0.0 0.00 0.00 0.00 91 1014.2
20260831131510 26 313 0.0 0.0 0.00 0.00 0.00 91 1014.2
20260831130008 26 313 0.0 0.0 0.00 0.00 0.00 91 1013.9
20260831124510 26 313 0.0 0.0 0.00 0.00 0.00 91 1013.6
20260831123006 26 313 0.0 0.0 0.00 0.00 0.00 91 1013.5
20260831121507 26 313 1.6 4.8 0.00 0.00 0.00 91 1013.3
20260831120013 26 313 0.0 3.2 0.00 0.00 0.00 91 1013.4
20260831114504 26 313 0.0 0.0 0.00 0.00 0.00 91 1013.1
20260831113004 26 306 0.0 4.8 0.00 0.00 0.00 91 1013.0
20260831111503 26 308 1.6 3.2 0.00 0.00 0.00 91 1013.0
20260831110003 26 311 1.6 4.8 0.00 0.00 0.00 91 1012.9
20260831104504 26 282 1.6 4.8 0.00 0.00 0.00 92 1012.9
20260831103001 26 235 0.0 0.0 0.00 0.00 0.00 92 1013.1
20260831101601 26 235 0.0 3.2 0.00 0.00 0.00 91 1013.0
20260831100106 26 206 0.0 0.0 0.00 0.00 0.00 91 1013.1
20260831094600 26 206 0.0 0.0 0.00 0.00 0.00 91 1013.1
20260831093100 26 206 0.0 0.0 0.00 0.00 0.00 91 1013.0
20260831091557 26 206 0.0 0.0 0.00 0.00 0.00 90 1012.9
20260831090058 26 206 0.0 0.0 0.00 0.00 0.00 90 1012.8
20260831084603 26 206 0.0 0.0 0.00 0.00 0.00 90 1012.9
20260831083055 26 206 0.0 0.0 0.00 0.00 0.00 89 1013.0
20260831081625 26 206 0.0 0.0 0.00 0.00 0.00 89 1013.1
20260831080051 26 206 0.0 0.0 0.00 0.00 0.00 88 1013.3
20260831074549 26 206 0.0 0.0 0.00 0.00 0.00 88 1013.3
20260831073122 27 206 0.0 0.0 0.00 0.00 0.00 88 1013.3
20260831071546 27 206 0.0 0.0 0.00 0.00 0.00 88 1013.2
20260831070046 27 206 0.0 0.0 0.00 0.00 0.00 88 1013.3
20260831064552 27 206 0.0 0.0 0.00 0.00 0.00 88 1013.4
20260831063043 27 163 0.0 0.0 0.00 0.00 0.00 87 1013.5
20260831061542 27 163 0.0 0.0 0.00 0.00 0.00 87 1013.6
20260831060057 27 163 0.0 0.0 0.00 0.00 0.00 87 1013.6
20260831054541 27 163 0.0 0.0 0.00 0.00 0.00 86 1013.5
20260831053038 27 163 0.0 0.0 0.00 0.00 0.00 86 1013.5
20260831051541 27 90 0.0 0.0 0.00 0.00 0.00 85 1013.4
20260831050044 27 89 0.0 0.0 0.00 0.00 0.00 85 1013.4
20260831044536 27 89 0.0 0.0 0.00 0.00 0.00 84 1013.4
20260831043036 27 89 0.0 0.0 0.00 0.00 0.00 83 1013.3
20260831041545 27 89 0.0 0.0 0.00 0.00 0.00 83 1013.3
20260831040047 28 89 0.0 0.0 0.00 0.00 0.00 82 1013.2
20260831034538 28 89 0.0 0.0 0.00 0.00 0.00 81 1013.1
20260831033033 28 89 0.0 0.0 0.00 0.00 0.00 80 1013.0
20260831031533 28 175 0.0 0.0 0.00 0.00 0.00 80 1012.9
20260831030044 28 175 0.0 0.0 0.00 0.00 0.00 80 1012.9
20260831024533 28 156 0.0 1.6 0.00 0.00 0.00 79 1012.7
20260831023033 29 224 0.0 1.6 0.00 0.00 0.00 78 1012.5
20260831021534 29 224 0.0 1.6 0.00 0.00 0.00 78 1012.3
20260831020031 30 224 0.0 1.6 0.00 0.00 0.00 77 1012.1
20260831014535 30 187 0.0 3.2 0.00 0.00 0.00 76 1012.0
20260831013032 30 192 0.0 8.0 0.00 0.00 0.00 75 1012.1
20260831011537 30 158 0.0 0.0 0.00 0.00 0.00 74 1011.9
20260831010029 30 158 0.0 3.2 0.00 0.00 0.00 73 1011.9
20260831004529 31 182 0.0 1.6 0.00 0.00 0.00 71 1011.9
20260831003027 31 129 0.0 3.2 0.00 0.00 0.00 70 1011.8
20260831001533 32 156 0.0 3.2 0.00 0.00 0.00 69 1011.8
20260831000028 32 165 0.0 3.2 0.00 0.00 0.00 67 1011.9
20260830234527 32 151 0.0 3.2 0.00 0.00 0.00 65 1011.8
20260830233033 33 165 0.0 4.8 0.00 0.00 0.00 64 1011.7
20260830231526 33 138 1.6 3.2 0.00 0.00 0.00 63 1011.7
20260830230027 33 129 0.0 3.2 0.00 0.00 0.00 61 1011.8
20260830224525 33 162 1.6 4.8 0.00 0.00 0.00 61 1011.8
20260830223026 33 112 0.0 4.8 0.00 0.00 0.00 60 1011.7
20260830221525 34 151 1.6 6.4 0.00 0.00 0.00 59 1011.6
20260830220039 34 156 0.0 4.8 0.00 0.00 0.00 63 1011.6